STARLINK-2748, 48694

Orbit data source: Space-Track

STARLINK-2748, 48694 is a payload satellite owned by SpaceX/Seattle (US) in LEO that was launched on Wed, 26 May 2021 UTC via an FALCON 9 launch vehicle from the Air Force Eastern Test Range (AFETR). Payload-class satellites include a variety of spacecraft equipped with specific instruments for various scientific and technological missions. These include communications satellites like Starlink; space stations such as the ISS; scientific satellites like the Hubble; Earth observation satellites from companies like Planet Labs, Umbra, and HawkEye 360; GPS; miniature CubeSats for education and research; and military/defense satellites.

Loading next visibility...
Identifier
48694, 2021-044BJ
Orbit
LEO
Country
Flag of USUS
Related business
Manufacturer
SpaceX/Seattle
Mission
Operational Commercial Communications
Bus & Motor
STARLINK, Unknown motor
Mass
260 kg wet, ~248 kg dry
Launch date (UTC)
2021-05-26 (5 years ago)
Launch vehicle
FALCON 9
Launch site
Air Force Eastern Test Range (AFETR)
Object type
Payload
Rocket body
Debris
Shape & HBR
Box + 1 Pan, 10.1 m
Radar Cross Section
13.562 m², Large (>1 m²)

Expand to show TLE details & history
Last TLE update: 2 days ago

TLE from 2 days ago
0 STARLINK-2748
1 48694U 21044BJ  26171.40739663  .00001252  00000-0  52062-4 0  9996
2 48694  53.1599 320.6187 0001082  80.6257 279.4867 15.31715197280059
Epoch: 2026-06-20T09:46Z
TLE epoch observation values (Epoch: 2026-06-20T09:46:39.068Z)
Latitude
-0.00002°
Longitude
-94.66656°
Altitude
471.473 km
Speed
7.632 km/s
True Right ascension
21h 22m 28s
True Declination
0° 00' 00"
Sunlit
Object was in full shadow at epoch
Visualization orbit readout
Latitude
Unknown
Longitude
Unknown
Altitude
Unknown
Speed
Unknown
Apparent Right ascension
Unknown
Apparent Declination
Unknown
Sunlit
N/A
Visualization observer readout
Local Sidereal Time
21:40:32
Azimuth
Unknown
Elevation
Unknown
Doppler factor
Unknown
Orbital elements
Apogee altitude
471.692 km
Perigee altitude
470.21 km
Semi-major axis
6,849.088 km
Eccentricity
0.00011
Inclination
53.1599°
RAAN
320.6187°
Arg. of periapsis
80.6257°
True anomaly
279.47447°
Mean anomaly
279.4867°
Eccentric anomaly
279.48059°
Mean motion
3.82908 °/min
Orbital period
94.02 mins
BSTAR
0.000052062
Loading maneuver chart data...
Computing Atmospheric mass density...

Documentation

Showing up to 5 results
|